Regional Weather Roundup
Issued by NWS

Home | Current Version | Previous Version | Text Only | Print | Product List | Glossary Off
Versions: 1 2 3 4 5 6 7 8 9 10 11 12 13 14 15 16 17 18 19 20 21 22 23 24 25 26 27 28 29 30 31 32 33 34 35 36 37 38 39 40 41 42 43 44 45 46 47 48 49 50

000
ASUS43 KLOT 191706
RWRIL

ILLINOIS REGIONAL WEATHER ROUNDUP
NATIONAL WEATHER SERVICE CHICAGO/ROMEOVILLE IL
1100 AM CST FRI DEC 19 2014

NOTE: "FAIR" INDICATES FEW OR NO CLOUDS BELOW 12,000 FEET WITH NO
SIGNIFICANT WEATHER AND/OR OBSTRUCTIONS TO VISIBILITY.

* THESE STATIONS ARE NOT UNDER NWS QUALITY CONTROL. THEY ALSO MAY NOT
  REPORT WEATHER SUCH AS PRECIPITATION OR FOG.

ILZ001-002-007-009-015-016-024-191800-
NORTHWEST ILLINOIS

CITY           SKY/WX    TMP DP  RH WIND       PRES   REMARKS
MOLINE         MOSUNNY   28  20  71 SE6       30.33F WCI  22
STERLING*      CLOUDY    28  19  69 CALM      30.33F
SAVANNA*       CLOUDY    28  20  71 CALM      30.33F
$$

ILZ003-004-008-010-011-017-018-191800-
NORTH CENTRAL ILLINOIS

CITY           SKY/WX    TMP DP  RH WIND       PRES   REMARKS
ROCKFORD       FLURRIES  27  21  78 CALM      30.34S
FREEPORT*      CLOUDY    26  21  83 CALM      30.34S
ROCHELLE*      CLOUDY    28  22  78 CALM      30.32F
DE KALB*       CLOUDY    28  20  74 CALM      30.31F
PERU*          MOSUNNY   30  24  76 CALM      30.33F
$$

ILZ005-006-012>014-019>023-191800-
NORTHEAST ILLINOIS

CITY           SKY/WX    TMP DP  RH WIND       PRES   REMARKS
CHICAGO-OHARE  CLOUDY    29  21  72 NW3       30.31F
CHICAGO-MIDWAY CLOUDY    32  23  69 NW5       30.31F WCI  27
AURORA         CLOUDY    33  22  63 CALM      30.31F
LANSING*       CLOUDY    32  24  73 CALM      30.31F
JOLIET*        CLOUDY    30  23  75 CALM      30.33S
WAUKEGAN       CLOUDY    28  19  69 W7        30.30F WCI  21
DUPAGE AIRPORT CLOUDY    30  22  72 N5        30.30F WCI  25
KANKAKEE*      CLOUDY    28  24  84 W5        30.32F WCI  23
WHEELING       CLOUDY    29  20  69 CALM      30.33F
MORRIS*        SUNNY     31  26  79 CALM      30.31F
ROMEOVILLE*    CLOUDY    30  24  76 CALM      30.32S
NORTHERLY ISL    N/A     31  22  69 W2          N/A
$$

LMZ740>746-191800-
SOUTHERN LAKE MICHIGAN

STATION/POSITION SKY/WX   TEMP    WIND        PRES    VSBY  WAVE
                          AIR SEA DIR/SP/G                  HT/PER
                          (F)     (DEG/KT/KT) (MB)    (MI)  (FT/S)
WAUKEGAN HARBOR            28     290/  3/  9   N/A
HARRISON CRIB              30     280/  6/  7   N/A
BURNHAM HARBOR             31     280/  5/  8   N/A
CALUMET HARBOR             31      20/  2/  3 1025.2S
$$

ILZ025>027-034>036-040-047-049-050-058-095>099-191800-
WEST-CENTRAL ILLINOIS

CITY           SKY/WX    TMP DP  RH WIND       PRES   REMARKS
QUINCY         CLOUDY    31  23  72 SE6       30.31S WCI  25
GALESBURG*     SUNNY     29  20  71 CALM      30.32F
MACOMB*        SUNNY     29  24  79 E3        30.34F
JACKSONVILLE*  CLOUDY    33  26  75 SE3       30.33S
PITTSFIELD*    CLOUDY    32  26  78 CALM      30.33S
$$

ILZ028>032-037-038-041>044-048-051>054-059>061-191800-
CENTRAL ILLINOIS

CITY           SKY/WX    TMP DP  RH WIND       PRES   REMARKS
PONTIAC        SUNNY     29  23  79 W5        30.33F WCI  24
BLOOMINGTON    SUNNY     28  21  75 CALM      30.31F
DECATUR        SUNNY     30  23  75 VRB6      30.32F WCI  24
PEORIA         SUNNY     31  20  63 CALM      30.32F
LACON*         SUNNY     28  22  78 N3        30.32F
LINCOLN*       SUNNY     30  23  76 CALM      30.33F
SPRINGFIELD    CLOUDY    33  22  63 CALM      30.34R
TAYLORVILLE    SUNNY     32  21  64 CALM      30.33R
$$

ILZ033-039-045-046-055>057-062-063-191800-
EAST-CENTRAL ILLINOIS

CITY           SKY/WX    TMP DP  RH WIND       PRES   REMARKS
CHAMPAIGN      SUNNY     30  21  69 N6        30.30F WCI  24
DANVILLE*      CLOUDY    27  23  85 NW3       30.28F
RANTOUL*       SUNNY     31  23  74 CALM      30.30F
MATTOON        SUNNY     29  21  72 NE7       30.30F WCI  22
PARIS*         SUNNY     30  24  78 N5        30.31F WCI  26
$$

ILZ079-100>102-191800-
SOUTHWEST ILLINOIS

CITY           SKY/WX    TMP DP  RH WIND       PRES   REMARKS
ALTON          CLOUDY    32  28  86 VRB5      30.33F FOG     WCI  27
BELLEVILLE     CLOUDY    34  29  85 E7        30.31F WCI  27
CAHOKIA*       CLOUDY    36  28  73 VRB3      30.32F
SPARTA*        CLOUDY    33  28  83 E5        30.32F WCI  28
$$

ILZ064>066-069>071-074>076-080>082-084>086-088>090-092>094-191800-
SOUTH-CENTRAL ILLINOIS

CITY           SKY/WX    TMP DP  RH WIND       PRES   REMARKS
CARBONDALE     CLOUDY    35  28  75 E7        30.31F WCI  29
CAIRO*         CLOUDY    38  31  76 NE7       30.32S WCI  32
EFFINGHAM*     SUNNY     32  20  61 CALM      30.34S
MARION         CLOUDY    36  28  75 N9        30.32F WCI  29
MT. VERNON     PTSUNNY   32  21  64 CALM      30.33F
CENTRALIA*     CLOUDY    33  25  73 NE3       30.32F
SALEM*         CLOUDY    34  26  72 CALM      30.33F
METROPOLIS*    CLOUDY    36  29  77 NE6       30.31S WCI  31
$$

ILZ067-068-072-073-078-083-087-091-191800-
SOUTHEAST ILLINOIS

CITY           SKY/WX    TMP DP  RH WIND       PRES   REMARKS
LAWRENCEVILLE  MOSUNNY   33  23  66 E6        30.33R WCI  28
FLORA*         SUNNY     32  25  74 CALM      30.33F
FAIRFIELD*     MOSUNNY   32  25  73 CALM      30.32F
HARRISBURG*    CLOUDY    34  27  75 NE6       30.33F WCI  29
ROBINSON*      SUNNY     32  23  70 CALM      30.34R
CARMI*         PTSUNNY   33  28  81 NE3       30.32F
$$

ABBREVIATIONS USED IN REMARKS
   TC - TEMPERATURE IN CELSIUS
  WCI - WIND CHILL INDEX
   HX - HEAT INDEX
  VSB - VISIBILITY
$$




USA.gov is the U.S. government's official web portal to all federal, state and local government web resources and services.